www.pogodaiklimat.ru

Погода и климат >> Архив погоды >> Индия >> Карнатака >> Мангалор аэропорт


ПОГОДА в Мангалор аэропорт

  • Прогноз погоды в Мангалор аэропорт
  • Монитор погоды в Мангалор аэропорт

АРХИВ ПОГОДЫ в Мангалор аэропорт

Время (UTC), дата Ветер
(напр.,м/с)
 
Видим.   Явления Облачность Т
(С)
Тd
(С)
f
(%)
Тe
(С)
Тes
(С)
Комфортность P
(гПа)
Po
(гПа)
Тmin
(С)
Tmax
(С)
R
(мм)
R24
(мм)
S
(см)
00 17.01 В 3 4000 м 4/0
[Ci fib]
+21.2 +14.0 63 +24 +24 комфорт 1010.6 998.9
03 17.01 В 4 4000 м 6/0
[Ci fib]
+22.2 +11.9 52 +25 +26 комфорт 1012.9 1001.2 +19.4 +34.0
06 17.01 В 3 4000 м 3/0
[Ci fib]
+30.4 +13.9 37 +32 +43 жарко 1012.4 1001.0
09 17.01 З 4 4000 м 3/0
[Ci fib]
+32.6 +14.4 33 +34 +41 очень
жарко
1008.9 997.6
12 17.01 З 4 4000 м 1/0
[Ci fib]
+29.4 +18.6 52 +34 +35 очень
душно
1008.3 997.0 +34.4
15 17.01 штиль 0 4000 м 3/0
[Ci fib]
+26.4 +18.2 61 +31 +31 душно 1010.5 999.0
18 17.01 штиль 0 4000 м 1/0
[Ci fib]
+24.0 +18.3 70 +28 +28 душно 1011.8 1000.2
21 17.01 В 2 4000 м 1/0
[Ci fib]
+22.4 +18.3 78 +28 +28 душно 1010.8 999.1
00 18.01 В 3 4000 м 1/0
[Ci fib]
+21.4 +17.9 80 +26 +26 душно 1011.0 999.3
03 18.01 В 2 4000 м мгла 1/0
[Ci fib]
+23.0 +17.2 70 +28 +31 душно 1013.3 1001.6 +20.4 +34.4
06 18.01 В 3 4000 м мгла ясно +29.8 +14.3 39 +32 +44 душно 1012.9 1001.5
09 18.01 З 5 4000 м ясно +32.0 +18.4 44 +37 +43 очень
душно
1009.1 997.8
12 18.01 З 4 4000 м ясно +30.2 +17.3 46 +34 +35 очень
душно
1008.8 997.4 +34.2
15 18.01 штиль 0 4000 м ясно +26.8 +20.7 69 +33 +33 очень
душно
1011.2 999.7
18 18.01 В 2 4000 м ясно +25.0 +19.1 70 +30 +30 душно 1012.8 1001.2
21 18.01 В 2 4000 м ясно +23.0 +19.2 79 +29 +29 очень
душно
1012.1 1000.4
00 19.01 ЮВ 2 4000 м ясно +22.0 +18.5 81 +27 +27 душно 1012.2 1000.5
03 19.01 В 2 4000 м мгла 1/0
[Ci fib]
+22.6 +14.9 62 +26 +29 жарко 1014.4 1002.7 +20.6 +34.2
06 19.01 ЮЗ 2 4000 м 3/0
[Ci fib]
+30.0 +13.3 36 +31 +46 жарко 1014.5 1003.0
09 19.01 З 4 4000 м 8/0
[Cs]
+31.2 +14.5 36 +33 +39 жарко 1011.0 999.7
12 19.01 З 3 4000 м мгла 8/0
[Cs]
+28.4 +18.4 55 +33 +34 очень
душно
1010.4 999.0 +31.6
15 19.01 С 2 4000 м мгла 8/0
[Cs]
+26.2 +19.4 66 +32 +32 очень
душно
1012.6 1001.1
18 19.01 штиль 0 4000 м дымка 8/0
[Cs]
+24.4 +19.8 76 +30 +30 очень
душно
1014.0 1002.4
21 19.01 В 2 4000 м дымка 8/0
[Cs]
+22.4 +18.3 78 +28 +28 душно 1012.9 1001.2
00 20.01 В 2 4000 м дымка 4/0
[Ci fib]
+20.8 +17.2 80 +25 +25 комфорт 1013.4 1001.6
03 20.01 В 3 4000 м мгла 4/0
[Ci fib]
+21.4 +15.4 69 +25 +27 комфорт 1015.4 1003.7 +19.6 +31.6
06 20.01 В 4 4000 м 3/0
[Ci fib]
+29.4 +13.3 37 +31 +40 жарко 1014.9 1003.4
09 20.01 СВ 3 4000 м 3/0
[Ci fib]
+33.2 +12.9 29 +34 +44 очень
жарко
1010.6 999.3
12 20.01 З 3 4000 м 3/0
[Ci fib]
+30.6 +15.0 39 +33 +33 душно 1009.7 998.3 +34.4
15 20.01 С 2 4000 м 5/0
[Ci fib]
+26.8 +17.6 57 +31 +31 душно 1012.4 1000.9
18 20.01 штиль 0 4000 м 5/0
[Ci fib]
+25.6 +17.3 60 +30 +30 душно 1013.9 1002.3
21 20.01 В 2 4000 м 3/0
[Ci fib]
+22.2 +17.0 72 +27 +27 душно 1012.5 1000.8
00 21.01 В 2 4000 м 3/0
[Ci fib]
+21.2 +17.3 78 +25 +25 комфорт 1012.7 1001.1
03 21.01 В 3 4000 м 3/0
[Ci fib]
+22.0 +14.2 61 +25 +28 комфорт 1015.2 1003.4 +20.0 +34.4
06 21.01 В 2 4000 м 3/1 450 м
[Sc Ci fib]
+30.0 +15.4 41 +33 +45 душно 1015.0 1003.5
09 21.01 ЮЗ 4 4000 м 1/1 450 м
[Sc]
+31.6 +18.3 45 +36 +43 очень
душно
1011.3 1000.0
12 21.01 З 3 4000 м 3/1 450 м
[Sc Ci fib]
+29.6 +16.5 45 +33 +33 душно 1010.8 999.4 +32.8
15 21.01 штиль 0 4000 м 5/1 450 м
[Sc Ac trans Ci fib]
+26.2 +20.7 72 +33 +33 очень
душно
1013.0 1001.5
18 21.01 штиль 0 4000 м 4/3 450 м
[Sc Ci fib]
+25.0 +20.4 76 +31 +31 очень
душно
1013.5 1001.9
21 21.01 В 2 4000 м 4/3 450 м
[Sc Ci fib]
+23.4 +20.3 83 +31 +31 очень
душно
1012.1 1000.5
00 22.01 В 3 4000 м 1/0
[Ci fib]
+22.4 +19.3 83 +28 +28 душно 1012.6 1000.9
03 22.01 В 3 4000 м мгла 5/1 600 м
[Sc Ci fib]
+23.4 +19.0 76 +30 +32 очень
душно
1014.6 1003.0 +21.4 +32.8
06 22.01 С 3 4000 м 5/4 450 м
[Cu Sc Ci fib]
+29.6 +19.5 55 +36 +43 очень
душно
1014.6 1003.2
09 22.01 З 6 4000 м 5/4 450 м
[Cu Sc Ci fib]
+31.8 +17.8 43 +36 +38 очень
душно
1011.1 999.8
12 22.01 З 3 4000 м 3/1 450 м
[Cu Sc Ci fib]
+29.4 +20.2 58 +36 +36 очень
душно
1011.3 999.9 +32.0
15 22.01 С 2 4000 м 3/0
[Ci fib]
+26.4 +19.6 66 +32 +32 очень
душно
1013.0 1001.5
18 22.01 С 3 4000 м 3/0
[Ci fib]
+25.2 +19.6 71 +31 +31 очень
душно
1013.6 1002.0
21 22.01 В 2 4000 м 1/0
[Ci fib]
+23.2 +19.8 81 +30 +30 очень
душно
1012.4 1000.8
00 23.01 В 2 4000 м 1/0
[Ci fib]
+21.8 +19.0 84 +27 +27 душно 1012.7 1001.0
03 23.01 В 2 4000 м дымка 6/0 2000 м
[Ac trans Ci fib]
+23.4 +19.0 76 +30 +32 очень
душно
1014.6 1002.9 +21.0 +32.0
06 23.01 С 3 4000 м 3/1 600 м
[Sc Ci fib]
+29.8 +16.4 44 +33 +43 душно 1014.0 1002.5
09 23.01 З 5 4000 м ясно +31.0 +17.6 45 +35 +41 очень
душно
1010.4 999.0
12 23.01 СЗ 6 4000 м ясно +29.0 +18.1 52 +34 +34 очень
душно
1010.1 998.7 +32.0
15 23.01 С 3 4000 м 3/0
[Ci fib]
+26.0 +19.9 69 +32 +32 очень
душно
1012.5 1000.9
18 23.01 С 2 4000 м 3/0
[Ci fib]
+25.0 +18.4 67 +30 +30 душно 1013.0 1001.4

 

Местоположение метеостанции Мангалор аэропорт (Карнатака, Индия): широта 12.92 долгота 74.88 высота над уровнем моря 102 м.

В архиве по умолчанию представлена погода в Мангалор аэропорт за последнюю неделю. Архивные данные за месяц целиком и за предыдущие месяцы, начиная с января 2011 года, Вы можете получить, выбрав интересующий диапазон дат из раскрывающегося списка и нажав кнопку "Ввод!".


*Определитесь, кто Вы:
робот инопланетянин человек

Внимание! Время в таблицах - всемирное. Для получения местного времени необходимо прибавить поправку, которая равна 5.5 ч.

Смотрите также архив погоды в соседних городах и на ближайших метеорологических станциях:

Погода в Мангалоре (Карнатака, Индия) (6 км)
Погода на Агамбе (Карнатака, Индия) (68 км)
Погода в Чикмагалуре (Карнатака, Индия) (101 км)
Погода в Мадикери (Карнатака, Индия) (108 км)
Погода в Каннаноре (Керала, Индия) (131 км)
Погода в Ширали (Карнатака, Индия) (133 км)
Погода в Шимоге (Карнатака, Индия) (139 км)
Погода в Хассане (Карнатака, Индия) (157 км)
Погода в Хоннаваре (Карнатака, Индия) (158 км)
Погода в Давангере (Карнатака, Индия) (209 км)

Пояснения к столбцам:

Ветер - указаны скорость ветра в м/с - средняя за 10 мин, порывы в срок и между сроками (в фигурных скобках) и направление, откуда дует ветер: С - северный, СВ - северо-восточный, В - восточный, ЮВ - юго-восточный, Ю - южный, ЮЗ - юго-западный, З - западный, СЗ - северо-западный.
Видимость - горизонтальная дальность видимости в метрах или километрах. При видимости от 1 до 10 км при отсутствии осадков обычно наблюдается дымка, при ухудшении видимости до 1 км и менее - туман. В сухую погоду видимость может ухудшаться дымом, пылью или мглою.
Явления - указаны атмосферные явления, наблюдавшиеся в срок или в последний час перед сроком; фигурными скобками обозначены явления, наблюдавшиеся между сроками (за 1-3 часа до срока); квадратными скобками обозначены град или гололедные отложения с указанием их диаметра в мм.
Облачность - указаны через наклонную черту общая и нижняя облачность в баллах и высота нижней границы облаков в метрах; квадратными скобками обозначены формы облаков: Ci - перистые, Cs - перисто-слоистые, Cc - перисто-кучевые, Ac - высококучевые, As - высокослоистые, Sc - слоисто-кучевые, Ns - слоисто-дождевые, Cu - кучевые, Cb - кучево-дождевые. Подробнее классификацию облаков см. в Атласе облаков (PDF).
T - Температура воздуха - температура, измеренная на высоте 2 м над землей.
Td - Температура точки росы - температура, при понижении до которой содержащийся в воздухе водяной пар достигнет насыщения.
f - Относительная влажность воздуха - влажноcть воздуха, измеренная на высоте 2 м над землей.
Te - Эффективная температура - температура, которую ощущает одетый по сезону человек в тени. Характеристика душности погоды. При расчете учитывается влияние влажности воздуха и скорости ветра на теплоощущения человека.
Tes - Эффективная температура на солнце - температура, которую ощущает человек, с поправкой на солнечный нагрев. Характеристика знойности погоды. Зависит от высоты солнца над горизонтом, облачности и скорости ветра. Ночью, в пасмурную погоду, а также при ветре 12 м/с и более поправка равна нулю.
P - Атмосферное давление - приведенное к уровню моря атмосферное давление.
Po - Атмосферное давление - измеренное на уровне метеостанции атмосферное давление.
Tmin - Минимальная температура - минимум температуры воздуха на высоте 2 м над землей.
Tmax - Максимальная температура - максимум температуры воздуха на высоте 2 м над землей.
R - Количество осадков - Количество выпавших осадков за период времени, мм. При наведении курсора мыши на число - период времени, за который выпало указанное количество осадков.
R24 - Количество осадков - Количество выпавших осадков за 24 часа, мм.
S - Снежный покров - Высота снежного покрова, см. При наведении курсора мыши на число - состояние снежного покрова и степень покрытия местности в баллах.